QXE2322 KSEA-KSBP

Flight info

Callsign QXE2322
Flight time 1h 49m
Altitude 33000
Route SUMMA2 SUMMA JINMO Q7 JAGWA PRB MQO CREPE
Aircraft E75L/M-SDE3GILORVW/S

Departure

Time 2026-05-07 18:58
Airport Seattle–Tacoma International Airport (KSEA)

Arrival

Time 2026-05-07 20:47
Airport San Luis County Regional Airport (KSBP)
Time Latitude Longitude Altitude Speed Heading
2026-05-07 18:44 47.44569 -122.30476 434 ft 0 kts 90°
2026-05-07 18:49 47.44569 -122.30475 434 ft 0 kts 90°
2026-05-07 18:50 47.44569 -122.30480 434 ft 2 kts 90°
2026-05-07 18:50 47.44569 -122.30502 434 ft 2 kts 90°
2026-05-07 18:50 47.44569 -122.30523 434 ft 0 kts 90°
2026-05-07 18:51 47.44568 -122.30535 434 ft 1 kts 53°
2026-05-07 18:51 47.44558 -122.30544 434 ft 0 kts
2026-05-07 18:51 47.44554 -122.30544 434 ft 0 kts 360°
2026-05-07 18:52 47.44556 -122.30544 434 ft 1 kts 357°
2026-05-07 18:52 47.44578 -122.30555 434 ft 5 kts 333°
2026-05-07 18:53 47.44622 -122.30589 434 ft 9 kts 332°
2026-05-07 18:53 47.44695 -122.30629 434 ft 13 kts 354°
2026-05-07 18:53 47.44797 -122.30630 434 ft 16 kts
2026-05-07 18:53 47.44927 -122.30629 434 ft 20 kts
2026-05-07 18:54 47.45079 -122.30628 434 ft 23 kts
2026-05-07 18:54 47.45256 -122.30627 434 ft 27 kts
2026-05-07 18:54 47.45446 -122.30626 434 ft 27 kts
2026-05-07 18:54 47.45640 -122.30623 434 ft 27 kts
2026-05-07 18:55 47.45831 -122.30621 434 ft 27 kts
2026-05-07 18:55 47.46009 -122.30618 434 ft 23 kts
2026-05-07 18:55 47.46167 -122.30617 434 ft 22 kts
2026-05-07 18:55 47.46309 -122.30615 434 ft 15 kts
2026-05-07 18:56 47.46375 -122.30673 434 ft 12 kts 282°
2026-05-07 18:56 47.46331 -122.30769 434 ft 12 kts 201°
2026-05-07 18:56 47.46249 -122.30780 434 ft 11 kts 181°
2026-05-07 18:56 47.45977 -122.30783 434 ft 70 kts 181°
2026-05-07 18:57 47.45294 -122.30787 434 ft 123 kts 180°
2026-05-07 18:57 47.44464 -122.30790 434 ft 159 kts 181°
2026-05-07 18:57 47.44289 -122.30791 444 ft 163 kts 181°
2026-05-07 18:58 47.43153 -122.30794 910 ft 165 kts 180°
2026-05-07 18:58 47.41998 -122.30776 1459 ft 170 kts 180°
2026-05-07 18:58 47.40785 -122.30759 2005 ft 180 kts 180°
2026-05-07 18:58 47.39522 -122.30756 2553 ft 189 kts 180°
2026-05-07 18:59 47.38153 -122.30769 3049 ft 204 kts 180°
2026-05-07 18:59 47.36671 -122.30787 3510 ft 223 kts 180°
2026-05-07 18:59 47.35034 -122.30810 3735 ft 253 kts 180°
2026-05-07 18:59 47.33200 -122.30839 4186 ft 272 kts 181°
2026-05-07 19:00 47.31273 -122.30869 4940 ft 278 kts 181°
2026-05-07 19:00 47.29370 -122.30901 5792 ft 279 kts 181°
2026-05-07 19:00 47.27448 -122.30932 6638 ft 279 kts 181°
2026-05-07 19:00 47.25521 -122.30924 7395 ft 281 kts 173°
2026-05-07 19:01 47.23641 -122.30158 8072 ft 284 kts 161°
2026-05-07 19:01 47.21766 -122.29201 8732 ft 288 kts 161°
2026-05-07 19:01 47.19864 -122.28228 9355 ft 293 kts 161°
2026-05-07 19:01 47.17932 -122.27240 10002 ft 296 kts 161°
2026-05-07 19:02 47.15974 -122.26239 10561 ft 302 kts 161°
2026-05-07 19:02 47.13982 -122.25222 11033 ft 310 kts 161°
2026-05-07 19:02 47.11916 -122.24167 11485 ft 318 kts 161°
2026-05-07 19:02 47.09792 -122.23083 11894 ft 328 kts 161°
2026-05-07 19:03 47.07610 -122.21971 12333 ft 335 kts 161°
2026-05-07 19:03 47.05383 -122.20837 12828 ft 340 kts 162°
2026-05-07 19:03 47.03152 -122.19702 13366 ft 343 kts 162°
2026-05-07 19:03 47.00898 -122.18557 13887 ft 346 kts 161°
2026-05-07 19:04 46.98641 -122.17410 14405 ft 348 kts 162°
2026-05-07 19:04 46.96326 -122.16236 14909 ft 350 kts 162°
2026-05-07 19:04 46.94043 -122.15079 15402 ft 353 kts 161°
2026-05-07 19:04 46.91696 -122.13890 15874 ft 357 kts 161°
2026-05-07 19:05 46.89342 -122.12699 16340 ft 360 kts 161°
2026-05-07 19:05 46.86990 -122.11510 16793 ft 363 kts 161°
2026-05-07 19:05 46.84576 -122.10291 17274 ft 365 kts 161°
2026-05-07 19:05 46.82201 -122.09093 17712 ft 368 kts 161°
2026-05-07 19:06 46.79776 -122.07870 18137 ft 372 kts 161°
2026-05-07 19:06 46.74840 -122.05386 19031 ft 377 kts 162°
2026-05-07 19:06 46.72387 -122.04152 19429 ft 380 kts 162°
2026-05-07 19:07 46.69877 -122.02891 19847 ft 383 kts 162°
2026-05-07 19:07 46.67369 -122.01633 20258 ft 385 kts 162°
2026-05-07 19:07 46.64814 -122.00353 20678 ft 387 kts 162°
2026-05-07 19:07 46.62206 -121.99513 21058 ft 387 kts 182°
2026-05-07 19:08 46.59567 -122.00173 21404 ft 384 kts 202°
2026-05-07 19:08 46.57058 -122.01501 21811 ft 386 kts 203°
2026-05-07 19:08 46.54563 -122.02868 22220 ft 387 kts 203°
2026-05-07 19:08 46.52057 -122.04255 22604 ft 389 kts 204°
2026-05-07 19:09 46.49512 -122.05667 22984 ft 391 kts 204°
2026-05-07 19:09 46.46975 -122.07076 23369 ft 393 kts 204°
2026-05-07 19:09 46.44424 -122.08491 23758 ft 395 kts 204°
2026-05-07 19:09 46.41860 -122.09911 24131 ft 397 kts 204°
2026-05-07 19:10 46.39283 -122.11337 24503 ft 399 kts 204°
2026-05-07 19:10 46.36564 -122.12153 24809 ft 409 kts 182°
2026-05-07 19:10 46.33719 -122.11693 25131 ft 414 kts 173°
2026-05-07 19:10 46.30862 -122.11016 25477 ft 416 kts 173°
2026-05-07 19:11 46.28010 -122.10334 25801 ft 419 kts 173°
2026-05-07 19:11 46.25148 -122.09649 26117 ft 421 kts 173°
2026-05-07 19:11 46.22252 -122.08955 26456 ft 423 kts 173°
2026-05-07 19:11 46.19355 -122.08261 26801 ft 425 kts 173°
2026-05-07 19:12 46.16448 -122.07566 27088 ft 427 kts 174°
2026-05-07 19:12 46.13488 -122.06860 27422 ft 429 kts 174°
2026-05-07 19:12 46.10571 -122.06163 27739 ft 431 kts 174°
2026-05-07 19:12 46.07609 -122.05457 28056 ft 432 kts 174°
2026-05-07 19:13 46.04649 -122.04752 28332 ft 435 kts 174°
2026-05-07 19:13 46.01648 -122.04038 28608 ft 437 kts 174°
2026-05-07 19:13 45.98634 -122.03323 28911 ft 439 kts 174°
2026-05-07 19:13 45.95593 -122.02600 29220 ft 440 kts 174°
2026-05-07 19:14 45.92555 -122.01881 29497 ft 442 kts 174°
2026-05-07 19:14 45.89500 -122.01157 29789 ft 444 kts 174°
2026-05-07 19:14 45.86420 -122.00429 30048 ft 446 kts 174°
2026-05-07 19:14 45.83385 -121.99712 30308 ft 448 kts 174°
2026-05-07 19:15 45.80312 -121.98986 30584 ft 449 kts 174°
2026-05-07 19:15 45.77203 -121.98254 30821 ft 451 kts 174°
2026-05-07 19:15 45.74128 -121.97530 31049 ft 453 kts 174°
2026-05-07 19:15 45.71007 -121.96796 31312 ft 455 kts 174°
2026-05-07 19:16 45.67868 -121.96058 31545 ft 456 kts 174°
2026-05-07 19:16 45.64744 -121.95325 31801 ft 458 kts 174°
2026-05-07 19:16 45.61601 -121.94588 32085 ft 458 kts 174°
2026-05-07 19:16 45.58458 -121.93851 32441 ft 456 kts 174°
2026-05-07 19:17 45.55352 -121.93125 32773 ft 455 kts 174°
2026-05-07 19:17 45.52228 -121.92395 33058 ft 450 kts 174°
2026-05-07 19:17 45.46050 -121.90955 33110 ft 458 kts 174°
2026-05-07 19:18 45.39686 -121.89475 33110 ft 470 kts 174°
2026-05-07 19:18 45.33157 -121.87959 33107 ft 481 kts 174°
2026-05-07 19:19 45.26548 -121.86427 33109 ft 480 kts 174°
2026-05-07 19:19 45.19992 -121.84912 33111 ft 479 kts 174°
2026-05-07 19:20 45.13365 -121.83385 33110 ft 480 kts 174°
2026-05-07 19:20 45.06781 -121.81870 33108 ft 480 kts 174°
2026-05-07 19:21 45.00229 -121.80366 33112 ft 479 kts 174°
2026-05-07 19:21 44.93670 -121.78865 33119 ft 479 kts 174°
2026-05-07 19:22 44.87099 -121.77364 33120 ft 479 kts 174°
2026-05-07 19:22 44.80501 -121.75861 33125 ft 480 kts 174°
2026-05-07 19:23 44.73916 -121.74365 33128 ft 480 kts 174°
2026-05-07 19:23 44.67366 -121.72878 33139 ft 480 kts 174°
2026-05-07 19:24 44.60771 -121.71386 33132 ft 480 kts 174°
2026-05-07 19:24 44.54143 -121.69889 33136 ft 481 kts 174°
2026-05-07 19:25 44.47582 -121.68411 33144 ft 481 kts 174°
2026-05-07 19:25 44.40990 -121.66930 33149 ft 482 kts 174°
2026-05-07 19:26 44.34379 -121.65447 33153 ft 481 kts 174°
2026-05-07 19:26 44.27813 -121.63934 33158 ft 481 kts 174°
2026-05-07 19:27 44.21176 -121.62394 33161 ft 482 kts 174°
2026-05-07 19:27 44.14571 -121.60865 33157 ft 482 kts 174°
2026-05-07 19:28 44.07952 -121.59337 33166 ft 482 kts 174°
2026-05-07 19:28 44.01379 -121.57822 33172 ft 482 kts 173°
2026-05-07 19:29 43.94761 -121.56301 33170 ft 482 kts 173°
2026-05-07 19:29 43.88134 -121.54781 33172 ft 482 kts 173°
2026-05-07 19:30 43.81532 -121.53270 33170 ft 482 kts 173°
2026-05-07 19:30 43.74912 -121.51759 33170 ft 482 kts 173°
2026-05-07 19:31 43.68334 -121.50260 33166 ft 482 kts 173°
2026-05-07 19:31 43.61735 -121.48759 33177 ft 482 kts 173°
2026-05-07 19:32 43.55090 -121.47253 33180 ft 482 kts 173°
2026-05-07 19:32 43.48505 -121.45762 33184 ft 481 kts 173°
2026-05-07 19:33 43.41900 -121.44270 33192 ft 481 kts 173°
2026-05-07 19:33 43.35316 -121.42787 33200 ft 480 kts 173°
2026-05-07 19:34 43.28731 -121.41306 33207 ft 480 kts 173°
2026-05-07 19:34 43.22133 -121.39826 33215 ft 480 kts 173°
2026-05-07 19:35 43.15574 -121.38358 33213 ft 481 kts 173°
2026-05-07 19:35 43.08936 -121.36875 33218 ft 481 kts 173°
2026-05-07 19:36 43.02389 -121.35416 33220 ft 480 kts 173°
2026-05-07 19:36 42.95811 -121.33953 33222 ft 479 kts 173°
2026-05-07 19:37 42.89196 -121.32485 33222 ft 479 kts 173°
2026-05-07 19:37 42.82623 -121.31030 33217 ft 479 kts 173°
2026-05-07 19:38 42.76033 -121.29575 33213 ft 480 kts 173°
2026-05-07 19:38 42.69467 -121.28127 33209 ft 479 kts 173°
2026-05-07 19:39 42.62914 -121.26685 33201 ft 479 kts 173°
2026-05-07 19:39 42.56317 -121.25237 33198 ft 479 kts 173°
2026-05-07 19:40 42.49730 -121.23795 33191 ft 479 kts 173°
2026-05-07 19:40 42.43179 -121.22363 33193 ft 479 kts 173°
2026-05-07 19:41 42.36612 -121.20931 33196 ft 478 kts 173°
2026-05-07 19:41 42.30063 -121.19505 33197 ft 479 kts 173°
2026-05-07 19:42 42.23502 -121.18080 33205 ft 478 kts 173°
2026-05-07 19:42 42.16951 -121.16660 33203 ft 478 kts 173°
2026-05-07 19:43 42.10389 -121.15241 33203 ft 478 kts 173°
2026-05-07 19:43 42.03809 -121.13821 33202 ft 477 kts 172°
2026-05-07 19:44 41.97255 -121.12409 33200 ft 477 kts 172°
2026-05-07 19:44 41.90719 -121.11005 33201 ft 477 kts 172°
2026-05-07 19:45 41.84181 -121.09602 33198 ft 477 kts 172°
2026-05-07 19:45 41.77623 -121.08199 33202 ft 476 kts 172°
2026-05-07 19:46 41.71130 -121.06812 33204 ft 476 kts 172°
2026-05-07 19:46 41.64565 -121.05413 33203 ft 476 kts 172°
2026-05-07 19:47 41.58024 -121.04021 33204 ft 477 kts 172°
2026-05-07 19:47 41.51489 -121.02634 33211 ft 476 kts 172°
2026-05-07 19:48 41.44963 -121.01251 33215 ft 475 kts 172°
2026-05-07 19:48 41.38469 -120.99879 33222 ft 475 kts 172°
2026-05-07 19:49 41.31929 -120.98498 33231 ft 475 kts 172°
2026-05-07 19:49 41.25429 -120.97130 33235 ft 475 kts 172°
2026-05-07 19:50 41.18935 -120.95766 33236 ft 474 kts 172°
2026-05-07 19:50 41.12400 -120.94395 33243 ft 474 kts 172°
2026-05-07 19:51 41.05889 -120.93032 33250 ft 473 kts 172°
2026-05-07 19:51 40.99367 -120.91774 33246 ft 472 kts 177°
2026-05-07 19:52 40.92840 -120.91247 33253 ft 472 kts 178°
2026-05-07 19:52 40.86309 -120.90723 33250 ft 472 kts 178°
2026-05-07 19:53 40.79727 -120.90197 33250 ft 472 kts 178°
2026-05-07 19:53 40.73186 -120.89674 33251 ft 472 kts 178°
2026-05-07 19:54 40.66736 -120.89161 33252 ft 471 kts 177°
2026-05-07 19:54 40.60210 -120.88641 33252 ft 471 kts 177°
2026-05-07 19:55 40.53659 -120.88122 33252 ft 471 kts 177°
2026-05-07 19:55 40.47144 -120.87605 33250 ft 472 kts 177°
2026-05-07 19:56 40.40557 -120.87085 33246 ft 472 kts 177°
2026-05-07 19:56 40.34020 -120.86569 33235 ft 471 kts 177°
2026-05-07 19:57 40.27484 -120.86054 33232 ft 471 kts 177°
2026-05-07 19:57 40.20951 -120.85541 33229 ft 469 kts 177°
2026-05-07 19:58 40.14467 -120.85032 33224 ft 470 kts 177°
2026-05-07 19:58 40.07940 -120.84521 33226 ft 471 kts 177°
2026-05-07 19:59 40.01397 -120.84010 33220 ft 471 kts 177°
2026-05-07 19:59 39.94865 -120.83500 33229 ft 471 kts 177°
2026-05-07 20:00 39.88315 -120.82990 33230 ft 470 kts 177°
2026-05-07 20:00 39.81784 -120.82482 33240 ft 470 kts 177°
2026-05-07 20:01 39.75291 -120.81979 33247 ft 470 kts 177°
2026-05-07 20:01 39.68773 -120.81474 33251 ft 470 kts 177°
2026-05-07 20:02 39.62233 -120.80969 33242 ft 470 kts 177°
2026-05-07 20:02 39.55745 -120.80469 33233 ft 470 kts 177°
2026-05-07 20:03 39.49178 -120.79963 33232 ft 470 kts 177°
2026-05-07 20:03 39.42678 -120.79464 33220 ft 469 kts 176°
2026-05-07 20:04 39.36124 -120.78961 33230 ft 470 kts 176°
2026-05-07 20:04 39.29620 -120.78464 33232 ft 471 kts 176°
2026-05-07 20:05 39.23078 -120.77963 33225 ft 471 kts 176°
2026-05-07 20:05 39.16550 -120.77466 33213 ft 471 kts 176°
2026-05-07 20:06 39.10016 -120.76968 33178 ft 470 kts 176°
2026-05-07 20:06 39.03472 -120.76472 33150 ft 470 kts 176°
2026-05-07 20:07 38.96937 -120.75976 33132 ft 469 kts 176°
2026-05-07 20:07 38.90394 -120.75481 33144 ft 470 kts 176°
2026-05-07 20:08 38.83846 -120.74985 33152 ft 471 kts 176°
2026-05-07 20:08 38.77326 -120.74494 33163 ft 469 kts 176°
2026-05-07 20:09 38.70790 -120.74002 33167 ft 469 kts 176°
2026-05-07 20:10 38.60984 -120.73266 33156 ft 469 kts 176°
2026-05-07 20:10 38.54452 -120.72776 33143 ft 469 kts 176°
2026-05-07 20:11 38.47938 -120.72289 33135 ft 469 kts 176°
2026-05-07 20:11 38.41430 -120.71803 33129 ft 469 kts 176°
2026-05-07 20:12 38.34936 -120.71319 33130 ft 469 kts 176°
2026-05-07 20:12 38.28418 -120.70834 33128 ft 469 kts 176°
2026-05-07 20:13 38.21916 -120.70351 33127 ft 468 kts 176°
2026-05-07 20:13 38.15399 -120.69868 33126 ft 468 kts 176°
2026-05-07 20:14 38.08931 -120.69389 33119 ft 468 kts 176°
2026-05-07 20:14 38.02396 -120.68907 33113 ft 468 kts 176°
2026-05-07 20:15 37.95905 -120.68429 33103 ft 468 kts 176°
2026-05-07 20:15 37.89422 -120.67951 33093 ft 468 kts 176°
2026-05-07 20:16 37.82878 -120.67471 33079 ft 467 kts 176°
2026-05-07 20:16 37.76369 -120.66993 33070 ft 468 kts 176°
2026-05-07 20:17 37.69907 -120.66520 33064 ft 468 kts 176°
2026-05-07 20:17 37.63351 -120.66041 33063 ft 468 kts 176°
2026-05-07 20:18 37.56889 -120.65569 33056 ft 468 kts 176°
2026-05-07 20:18 37.50516 -120.65105 32960 ft 441 kts 176°
2026-05-07 20:18 37.47512 -120.64887 32916 ft 419 kts 176°
2026-05-07 20:19 37.44664 -120.64681 32850 ft 400 kts 176°
2026-05-07 20:19 37.41970 -120.64484 32787 ft 382 kts 176°
2026-05-07 20:19 37.39369 -120.64295 32724 ft 365 kts 176°
2026-05-07 20:19 37.36898 -120.64116 32660 ft 348 kts 176°
2026-05-07 20:20 37.34531 -120.63945 32358 ft 343 kts 176°
2026-05-07 20:20 37.32059 -120.63804 31539 ft 369 kts 179°
2026-05-07 20:20 37.29394 -120.63801 30867 ft 399 kts 179°
2026-05-07 20:20 37.26542 -120.63787 30173 ft 426 kts 179°
2026-05-07 20:21 37.23476 -120.63768 29449 ft 452 kts 179°
2026-05-07 20:21 37.20352 -120.63747 28787 ft 446 kts 179°
2026-05-07 20:21 37.17284 -120.63726 28185 ft 436 kts 179°
2026-05-07 20:21 37.14258 -120.63705 27448 ft 429 kts 179°
2026-05-07 20:22 37.11325 -120.63686 26650 ft 425 kts 179°
2026-05-07 20:22 37.08366 -120.63665 25820 ft 421 kts 179°
2026-05-07 20:22 37.05463 -120.63645 25025 ft 417 kts 179°
2026-05-07 20:22 37.02559 -120.63625 24252 ft 412 kts 179°
2026-05-07 20:23 36.99735 -120.63605 23535 ft 409 kts 178°
2026-05-07 20:23 36.96898 -120.63586 22887 ft 408 kts 178°
2026-05-07 20:23 36.94051 -120.63567 22235 ft 403 kts 179°
2026-05-07 20:23 36.91280 -120.63547 21597 ft 398 kts 179°
2026-05-07 20:24 36.88504 -120.63528 20949 ft 394 kts 179°
2026-05-07 20:24 36.85794 -120.63510 20317 ft 390 kts 179°
2026-05-07 20:24 36.83101 -120.63492 19692 ft 386 kts 179°
2026-05-07 20:24 36.80437 -120.63474 19317 ft 381 kts 179°
2026-05-07 20:25 36.77766 -120.63455 18939 ft 380 kts 179°
2026-05-07 20:25 36.75153 -120.63438 18571 ft 379 kts 179°
2026-05-07 20:25 36.72498 -120.63419 18200 ft 379 kts 179°
2026-05-07 20:25 36.69855 -120.63401 17823 ft 377 kts 179°
2026-05-07 20:26 36.67243 -120.63384 17456 ft 374 kts 179°
2026-05-07 20:26 36.64672 -120.63366 17091 ft 372 kts 179°
2026-05-07 20:26 36.62079 -120.63348 16722 ft 370 kts 179°
2026-05-07 20:26 36.59522 -120.63332 16360 ft 368 kts 179°
2026-05-07 20:27 36.56963 -120.63314 15991 ft 365 kts 179°
2026-05-07 20:27 36.54418 -120.63296 15623 ft 362 kts 179°
2026-05-07 20:27 36.51895 -120.63280 15258 ft 361 kts 179°
2026-05-07 20:27 36.49392 -120.63263 14893 ft 359 kts 179°
2026-05-07 20:28 36.46903 -120.63246 14522 ft 357 kts 179°
2026-05-07 20:28 36.44432 -120.63229 14151 ft 355 kts 179°
2026-05-07 20:28 36.41954 -120.63213 13779 ft 353 kts 179°
2026-05-07 20:28 36.39505 -120.63196 13414 ft 351 kts 179°
2026-05-07 20:29 36.37069 -120.63179 13049 ft 348 kts 179°
2026-05-07 20:29 36.34657 -120.63163 12679 ft 346 kts 179°
2026-05-07 20:29 36.32269 -120.63147 12318 ft 343 kts 179°
2026-05-07 20:29 36.29879 -120.63130 11956 ft 341 kts 179°
2026-05-07 20:30 36.27511 -120.63115 11586 ft 336 kts 179°
2026-05-07 20:30 36.25206 -120.63099 11216 ft 328 kts 179°
2026-05-07 20:30 36.22942 -120.63084 10839 ft 319 kts 180°
2026-05-07 20:30 36.20759 -120.63068 10461 ft 311 kts 180°
2026-05-07 20:31 36.18535 -120.63055 10125 ft 324 kts 180°
2026-05-07 20:31 36.16284 -120.63039 10033 ft 326 kts 180°
2026-05-07 20:31 36.13992 -120.63024 10013 ft 327 kts 180°
2026-05-07 20:31 36.11713 -120.63009 10008 ft 327 kts 180°
2026-05-07 20:32 36.09441 -120.62994 10017 ft 328 kts 180°
2026-05-07 20:32 36.07140 -120.62978 10013 ft 328 kts 180°
2026-05-07 20:32 36.04868 -120.62963 10009 ft 328 kts 180°
2026-05-07 20:32 36.02577 -120.62948 10010 ft 328 kts 180°
2026-05-07 20:33 36.00288 -120.62933 10013 ft 328 kts 180°
2026-05-07 20:33 35.98010 -120.62917 10010 ft 328 kts 180°
2026-05-07 20:33 35.95710 -120.62901 10008 ft 328 kts 180°
2026-05-07 20:33 35.93441 -120.62887 10005 ft 328 kts 180°
2026-05-07 20:34 35.91137 -120.62871 10005 ft 328 kts 180°
2026-05-07 20:34 35.88852 -120.62856 9999 ft 328 kts 180°
2026-05-07 20:34 35.86558 -120.62841 9998 ft 328 kts 180°
2026-05-07 20:34 35.84275 -120.62825 9996 ft 328 kts 180°
2026-05-07 20:35 35.81999 -120.62811 9994 ft 327 kts 180°
2026-05-07 20:35 35.79728 -120.62795 9994 ft 327 kts 180°
2026-05-07 20:35 35.77451 -120.62780 9991 ft 327 kts 180°
2026-05-07 20:35 35.75166 -120.62765 9991 ft 327 kts 180°
2026-05-07 20:36 35.72864 -120.62749 9992 ft 327 kts 180°
2026-05-07 20:36 35.70578 -120.62734 10004 ft 327 kts 180°
2026-05-07 20:36 35.68302 -120.62720 10007 ft 328 kts 180°
2026-05-07 20:36 35.66052 -120.63097 10019 ft 327 kts 194°
2026-05-07 20:37 35.63840 -120.63791 10038 ft 328 kts 194°
2026-05-07 20:37 35.61627 -120.64489 10010 ft 326 kts 194°
2026-05-07 20:37 35.59440 -120.65181 10015 ft 326 kts 194°
2026-05-07 20:37 35.57243 -120.65875 10005 ft 326 kts 194°
2026-05-07 20:38 35.55007 -120.66251 9994 ft 317 kts 174°
2026-05-07 20:38 35.52936 -120.65608 10000 ft 295 kts 162°
2026-05-07 20:38 35.51024 -120.64837 9809 ft 289 kts 162°
2026-05-07 20:38 35.49125 -120.64065 9527 ft 285 kts 162°
2026-05-07 20:39 35.47242 -120.63296 9037 ft 285 kts 162°
2026-05-07 20:39 35.45360 -120.62532 8434 ft 288 kts 162°
2026-05-07 20:39 35.43463 -120.61777 7851 ft 290 kts 162°
2026-05-07 20:39 35.41524 -120.61014 7325 ft 290 kts 162°
2026-05-07 20:40 35.39601 -120.60268 6837 ft 289 kts 162°
2026-05-07 20:40 35.37684 -120.59531 6370 ft 288 kts 162°
2026-05-07 20:40 35.35788 -120.58812 5905 ft 286 kts 162°
2026-05-07 20:40 35.33892 -120.58095 5703 ft 282 kts 162°
2026-05-07 20:41 35.32085 -120.57351 5659 ft 266 kts 149°
2026-05-07 20:41 35.30639 -120.56083 5670 ft 245 kts 142°
2026-05-07 20:41 35.29294 -120.54874 5643 ft 236 kts 142°
2026-05-07 20:41 35.27956 -120.53677 5434 ft 239 kts 141°
2026-05-07 20:42 35.26734 -120.52291 5193 ft 237 kts 132°
2026-05-07 20:42 35.25601 -120.50863 4949 ft 235 kts 132°
2026-05-07 20:42 35.24466 -120.49434 4675 ft 230 kts 132°
2026-05-07 20:42 35.23360 -120.48045 4424 ft 226 kts 132°
2026-05-07 20:43 35.22262 -120.46697 4179 ft 223 kts 141°
2026-05-07 20:43 35.20841 -120.46114 4023 ft 214 kts 187°
2026-05-07 20:43 35.19582 -120.46837 4046 ft 198 kts 231°
2026-05-07 20:43 35.18983 -120.48315 4042 ft 194 kts 251°
2026-05-07 20:44 35.18489 -120.49871 3839 ft 199 kts 251°
2026-05-07 20:44 35.18302 -120.51514 3453 ft 194 kts 287°
2026-05-07 20:44 35.18771 -120.53019 3236 ft 183 kts 296°
2026-05-07 20:44 35.19244 -120.54374 2905 ft 170 kts 296°
2026-05-07 20:45 35.19692 -120.55673 2499 ft 163 kts 295°
2026-05-07 20:45 35.20121 -120.56942 2013 ft 163 kts 295°
2026-05-07 20:45 35.20530 -120.58204 1614 ft 157 kts 293°
2026-05-07 20:45 35.21010 -120.59374 1199 ft 150 kts 304°
2026-05-07 20:46 35.21559 -120.60372 965 ft 138 kts 306°
2026-05-07 20:46 35.22113 -120.61312 715 ft 136 kts 307°
2026-05-07 20:46 35.22662 -120.62234 499 ft 130 kts 306°
2026-05-07 20:46 35.23167 -120.63119 296 ft 124 kts 305°
2026-05-07 20:47 35.23629 -120.63921 207 ft 97 kts 304°
2026-05-07 20:47 35.23903 -120.64402 190 ft 37 kts 304°
2026-05-07 20:47 35.24019 -120.64603 181 ft 23 kts 304°
2026-05-07 20:47 35.24080 -120.64706 177 ft 9 kts 324°
2026-05-07 20:48 35.24140 -120.64689 177 ft 8 kts 49°
2026-05-07 20:48 35.24143 -120.64631 179 ft 6 kts 122°
2026-05-07 20:48 35.24115 -120.64581 181 ft 7 kts 124°
2026-05-07 20:48 35.24086 -120.64531 183 ft 8 kts 125°
2026-05-07 20:49 35.24045 -120.64459 186 ft 12 kts 124°
2026-05-07 20:49 35.23986 -120.64354 190 ft 16 kts 124°
2026-05-07 20:49 35.23917 -120.64245 196 ft 14 kts 130°
2026-05-07 20:49 35.23862 -120.64157 200 ft 11 kts 126°
2026-05-07 20:50 35.23817 -120.64078 202 ft 11 kts 123°
2026-05-07 20:50 35.23777 -120.63992 204 ft 12 kts 118°
2026-05-07 20:50 35.23746 -120.63930 206 ft 6 kts 115°
2026-05-07 20:50 35.23738 -120.63877 208 ft 6 kts 92°
2026-05-07 20:51 35.23737 -120.63813 211 ft 8 kts 86°
2026-05-07 20:51 35.23769 -120.63759 213 ft 7 kts 25°
2026-05-07 20:51 35.23786 -120.63750 213 ft 1 kts 23°
2026-05-07 20:51 35.23792 -120.63746 214 ft 0 kts 23°
2026-05-07 20:52 35.23795 -120.63745 214 ft 0 kts 24°
2026-05-07 20:52 35.23795 -120.63744 214 ft 0 kts 24°